Regional Weather Roundup
Issued by NWS

Home | Current Version | Previous Version | Text Only | Print | Product List | Glossary On
Versions: 1 2 3 4 5 6 7 8 9 10 11 12 13 14 15 16 17 18 19 20 21 22 23 24 25 26 27 28 29 30 31 32 33 34 35 36 37 38 39 40 41 42 43 44 45 46 47 48 49 50
000
ASUS43 KMKX 022200
RWRWI

WISCONSIN REGIONAL WEATHER ROUNDUP
NATIONAL WEATHER SERVICE MILWAUKEE/SULLIVAN WI
500 PM CDT SUN AUG 02 2015

NOTE: "FAIR" INDICATES FEW OR NO CLOUDS BELOW 12,000 FEET WITH NO
SIGNIFICANT WEATHER AND/OR OBSTRUCTIONS TO VISIBILITY.

WIZ001-002-006>008-014>016-023>028-022300-
NORTHWEST WISCONSIN

CITY           SKY/WX    TMP DP  RH WIND       PRES   REMARKS
SUPERIOR ARPT  PTSUNNY   76  58  53 N15G22    29.67R
ASHLAND        LGT RAIN  67  63  87 NW7G23    29.67R FOG
HAYWARD        MOSUNNY   77  56  48 VRB6G17   29.67S
SIREN          SUNNY     79  56  45 NW14G20   29.69F HX  80
CUMBERLAND     MOSUNNY   75  55  50 NW15      29.69F
RICE LAKE      MOSUNNY   76  63  63 W8        29.69F
CHETEK         LGT RAIN  75  63  65 W9G21     29.68R
LADYSMITH      MOSUNNY   78  61  56 NW14G21   29.68R HX  80
EAU CLAIRE     NOT AVBL
MENOMONIE      MOSUNNY   83  58  42 NW16G22   29.68R HX  83
NEW RICHMOND   SUNNY     79  61  53 NW13      29.70S HX  80
OSCEOLA        SUNNY     80  59  48 NW18      29.73R HX  81
$$

WIZ003>005-009-010-017-018-022300-
NORTH CENTRAL WISCONSIN

CITY           SKY/WX    TMP DP  RH WIND       PRES   REMARKS
MANITOWISH WTR SUNNY     73  54  51 N14G23    29.65S
ARBOR VITAE    MOSUNNY   76  59  56 NW17G25   29.64S
WOODRUFF       MOSUNNY   76  59  56 NW17G25   29.64S
RHINELANDER    MOSUNNY   76  60  57 NW12      29.64R
EAGLE RIVER    MOSUNNY   74  56  52 NW15G21   29.61F
LAND O LAKES   PTSUNNY   74  55  51 N15G24    29.64R
PHILLIPS       PTSUNNY   74  60  61 NW7       29.65R
TOMAHAWK       MOSUNNY   71  65  79 NW8       29.64S
MEDFORD        MOSUNNY   74  65  72 NW13G21   29.65R
MERRILL        NOT AVBL
$$

WIZ029-030-035-036-043>047-022300-
CENTRAL WISCONSIN

CITY           SKY/WX    TMP DP  RH WIND       PRES   REMARKS
WAUSAU         CLOUDY    77  59  53 N15G23    29.61R
MOSINEE        PTSUNNY   72  70  94 NW9       29.63R
MARSHFIELD     MOSUNNY   79  65  62 NW15G25   29.64R HX  81
STEVENS POINT  PTSUNNY   79  68  68 W12G18    29.59F HX  81
WAUPACA        CLOUDY    73  65  76 W6        29.60R
WAUTOMA        NOT AVBL
WISC RAPIDS    MOSUNNY   86  64  47 NW20G31   29.62R HX  87
CAMP DOUGLAS   NOT AVBL
$$

WIZ011>013-019>022-031-037>040-048>050-022300-
NORTHEAST WISCONSIN

CITY           SKY/WX    TMP DP  RH WIND       PRES   REMARKS
ANTIGO         PTSUNNY   72  62  71 NW14G21   29.62R
SHAWANO        LGT RAIN  71  64  79 E6        29.59R
OCONTO         CLOUDY    63  63 100 CALM      29.58R
STURGEON BAY   CLOUDY    61  55  82 CALM      29.60S
GREEN BAY      CLOUDY    65  62  90 CALM      29.59R
MANITOWOC      PTSUNNY   70  61  73 MISG      29.59R
APPLETON       PTSUNNY   72  61  68 NE13G24   29.59R
CLINTONVILLE   CLOUDY    70  63  78 E3        29.60R
OSHKOSH        TSTM      73  66  78 NW20G51   29.57R SQUALL  VSB 3/4
$$

WIZ032>034-041-042-053>061-022300-
SOUTHWEST WISCONSIN

CITY           SKY/WX    TMP DP  RH WIND       PRES   REMARKS
LA CROSSE      MOSUNNY   90  67  46 NW15      29.64R HX  93
SPARTA         SUNNY     89  60  38 W16G29    29.63R HX  88
VIROQUA        MOSUNNY   86  62  44 W18       29.67R HX  87
BOSCOBEL       MOSUNNY   94  68  42 W15G28    29.64R HX  98
PRAIRIE DU CHI SUNNY     92  65  41 W17G23    29.65S HX  94
PLATTEVILLE    MOSUNNY   88  73  61 SW18G25   29.69R HX  96
$$

WIZ056-057-062-063-064-067-068-022300-
SOUTH CENTRAL WISCONSIN

CITY           SKY/WX    TMP DP  RH WIND       PRES   REMARKS
REEDSBURG      MOSUNNY   91  69  49 SW21G33   29.59S HX  96
BARABOO/DELLS  SUNNY     91  64  40 W22G36    29.59S HX  92
LONE ROCK      NOT AVBL
MINERAL POINT  MOSUNNY   90  70  51 W20G26    29.68S HX  95
MADISON        MOSUNNY   89  70  53 SW13G22   29.60S HX  94
MIDDLETON      SUNNY     92  65  41 SW23G33   29.62S HX  94
WATERTOWN      SUNNY     88  70  55 SW21G31   29.58S HX  92
MONROE         SUNNY     88  70  55 SW26G38   29.66F HX  92
JANESVILLE     MOSUNNY   91  70  49 SW23G33   29.63F HX  97
$$

WIZ051-052-058>065-066-070>072-022300-
SOUTHEAST WISCONSIN

CITY           SKY/WX    TMP DP  RH WIND       PRES   REMARKS
MILWAUKEE      MOSUNNY   92  65  40 SW30G41   29.58F HX  94
WAUKESHA       SUNNY     88  64  45 SW24G30   29.61S HX  89
MILWAUKEE/TIMM SUNNY     90  59  35 SW26G37   29.58S HX  89
RACINE         SUNNY     91  67  44 SW22G37   29.61F HX  94
BURLINGTON     SUNNY     87  65  48 SW24G36   29.62F HX  89
KENOSHA        SUNNY     90  68  48 SW26G38   29.62F HX  94
FOND DU LAC    PTSUNNY   87  67  51 SW13G25   29.51F HX  90
SHEBOYGAN      MOSUNNY   87  68  52 W23G32    29.54R HX  90
WEST BEND      MOSUNNY   88  63  42 SW25G35   29.55S HX  88
JUNEAU         MOSUNNY   88  70  55 SW18G29   29.59S HX  92
$$

LSZ147-162-022300-
LAKE SUPERIOR

STATION/POSITION TIME  TEMP    WIND        PRES    WAVE
                       AIR SEA DIR/SP/G            HT/PER
                 (UTC) (F)     (DEG/KT/KT) (MB)    (FT/S)
W MID LAKE BUOY  2050   59 56  260/ 12/ 14 1002.4F   1/ 3
DEVILS ISLAND    2100   66     250/ 12/ 14 1003.3F
PORT WING        2100   69     270/ 20/ 24 1004.7R
SAXON HARBOR     2100   74                 1003.7
$$

LMZ867-665-643>646-022300-
LAKE MICHIGAN

STATION/POSITION TIME  TEMP    WIND        PRES    WAVE
                       AIR SEA DIR/SP/G            HT/PER
                 (UTC) (F)     (DEG/KT/KT) (MB)    (FT/S)
CHAMBERS ISLAND  2100   65     140/  3/  9 1001.0F
S GREEN BAY BUOY 2130   65 66  160/ 19/ 23 1002.9
N MID LAKE BUOY  2050   67 69  110/ 12/ 14  999.0F   2/ 5
NORTHPORT PIER   2100   69     140/  6/  8 1001.4R
ALGOMA LAKESHORE 2112           10/ 13/ 16   N/A
KEWAUNEE LAKESHO 2100   59     270/  7/ 12  998.5F
SHEBOYGAN LAKESH 2100   88     220/ 26/ 30  999.1R
PORT WASHINGTON  2130   93     240/ 15/ 25 1000.3F
ATWATER BUOY     2100   83 52  210/ 23/ 29 1002.7F
MILWAUKEE LAKESH 2100   88     220/ 27/ 36   N/A
KENOSHA   LAKESH 2100   89     220/ 21/ 43 1003.0F
$$

TC  - TEMPERATURE IN CELSIUS
VSB - VISIBILITY IN STATUTE MILES
WCI - WIND CHILL INDEX
HX  - HEAT INDEX




USA.gov is the U.S. government's official web portal to all federal, state and local government web resources and services.